Date,TemperatureHighF,TemperatureAvgF,TemperatureLowF,DewpointHighF,DewpointAvgF,DewpointLowF,HumidityHigh,HumidityAvg,HumidityLow,PressureMaxIn,PressureMinIn,WindSpeedMaxMPH,WindSpeedAvgMPH,GustSpeedMaxMPH,PrecipitationSumIn
2013-1-1,17.3,7.7,-0.6,10.0,2.0,-6.0,86,78,65,30.98,30.66,0,0,0,0.00
2013-1-2,20.8,9.2,-1.4,9.0,1.4,-9.0,84,71,50,30.97,30.88,0,0,0,0.00
2013-1-3,22.5,6.4,-4.5,4.0,-4.5,-12.0,76,62,42,31.08,30.97,0,0,0,0.00
2013-1-4,24.9,8.2,-2.5,8.0,-1.5,-8.0,78,66,41,31.05,30.89,0,0,0,0.02
2013-1-5,32.3,12.5,-0.7,12.0,0.5,-8.0,75,61,37,31.07,30.95,0,0,0,0.03
2013-1-6,30.6,17.3,3.3,12.0,4.5,-3.0,78,59,39,30.99,30.64,0,0,0,0.00
2013-1-7,38.4,20.8,9.1,11.0,3.1,-1.0,65,49,23,30.64,30.49,0,0,0,0.00
2013-1-8,32.5,20.1,11.3,17.0,8.3,2.0,74,61,49,30.68,30.52,0,0,0,0.00
2013-1-9,37.4,22.9,11.2,18.0,10.4,-99.9,81,62,46,30.92,0.00,0,-10,0,0.00
2013-1-10,40.0,33.6,18.6,22.0,12.3,5.0,76,44,25,30.54,29.74,0,0,0,0.00
2013-1-11,29.6,11.7,3.6,23.0,2.1,-6.0,83,66,55,30.37,29.64,0,0,0,0.00
2013-1-12,9.4,1.9,-5.5,1.0,-6.9,-13.0,74,67,59,30.66,30.37,0,0,0,0.00
2013-1-13,5.8,0.0,-11.1,2.0,-6.1,-17.0,85,75,60,30.78,30.63,0,0,0,0.00
2013-1-14,6.7,-5.8,-13.5,-2.0,-13.2,-20.0,82,71,52,31.08,30.78,0,0,0,0.02
2013-1-15,17.5,8.5,-11.8,11.0,-1.2,-18.0,89,66,49,31.19,31.08,0,0,0,0.00
2013-1-16,30.8,18.3,3.7,17.0,8.4,-1.0,88,67,46,31.14,30.99,0,0,0,0.02
2013-1-17,23.0,14.9,8.2,8.0,5.1,2.0,78,66,50,31.06,30.95,0,0,0,0.01
2013-1-18,36.7,19.1,8.8,14.0,7.2,1.0,77,61,40,30.97,30.85,0,0,0,0.00
2013-1-19,41.7,22.1,8.3,14.0,6.2,0.0,74,53,30,30.99,30.86,0,0,0,0.00
2013-1-21,41.8,22.0,13.7,10.0,3.9,0.0,60,47,24,30.81,30.75,5,1,0,0.00
2013-1-22,43.5,23.1,10.5,12.0,4.2,-2.0,66,47,24,30.89,30.80,6,1,0,0.00
2013-1-23,41.8,27.2,12.1,14.0,5.6,-4.0,59,42,22,30.90,30.74,9,1,0,0.00
2013-1-24,42.4,33.9,23.3,29.0,17.9,6.0,89,55,27,30.73,30.55,16,3,0,0.00
2013-1-25,35.6,32.4,30.2,33.0,30.2,27.0,93,91,87,30.62,30.51,3,0,0,0.02
2013-1-26,38.3,32.5,28.6,33.0,30.1,26.0,94,91,79,30.51,30.09,3,0,0,0.03
2013-1-27,38.8,32.6,28.3,31.0,27.9,23.0,94,83,60,30.18,30.03,24,6,0,0.20
2013-1-28,33.3,25.3,13.1,29.0,21.1,10.0,91,84,67,30.14,29.93,20,5,0,0.01
2013-1-29,17.4,10.9,1.7,9.0,6.1,-3.0,87,81,65,30.64,30.14,7,2,0,0.00
2013-1-30,23.5,16.4,2.7,18.0,11.1,-3.0,87,79,69,30.75,30.65,8,2,0,0.00
2013-1-31,33.3,24.4,15.4,23.0,17.3,11.0,87,75,52,30.81,30.67,14,4,0,0.20
2013-2-1,35.7,25.9,16.3,23.0,16.2,10.0,78,67,52,30.80,30.67,11,4,0,0.10
2013-2-2,36.0,21.3,10.4,21.0,11.5,4.0,83,67,46,30.98,30.79,7,2,0,0.00
2013-2-3,34.4,22.1,12.0,18.0,11.8,5.0,90,66,46,30.86,30.58,6,2,0,0.00
2013-2-4,36.6,21.2,8.1,21.0,12.0,4.0,92,69,44,30.69,30.60,8,3,0,0.01
2013-2-5,43.4,25.8,12.4,19.0,13.8,6.0,83,63,37,30.66,30.40,9,2,0,0.00
2013-2-6,40.7,31.0,17.6,25.0,19.5,14.0,89,64,45,30.43,30.25,12,4,0,0.00
2013-2-7,36.5,22.6,10.8,18.0,10.5,-1.0,89,61,45,30.63,30.43,11,4,0,0.00
2013-2-8,39.2,33.6,23.6,24.0,15.3,9.0,76,48,37,30.50,29.95,24,10,0,0.00
2013-2-9,28.6,21.3,7.8,20.0,16.0,3.0,88,80,59,30.14,29.86,14,4,0,0.02
2013-2-10,21.5,15.0,6.9,16.0,10.6,3.0,92,83,75,30.43,30.15,7,2,0,0.06
2013-2-11,21.0,14.0,1.5,14.0,9.8,-3.0,92,83,67,30.63,30.40,8,2,0,0.01
2013-2-12,23.0,10.2,-1.9,9.0,1.9,-7.0,88,70,52,30.91,30.64,7,3,0,0.03
2013-2-13,31.4,20.0,13.2,17.0,11.7,7.0,82,71,54,30.91,30.66,7,2,0,0.04
2013-2-14,30.4,21.0,12.6,18.0,12.8,5.0,84,71,50,30.77,30.62,9,3,0,0.01
2013-2-15,30.7,18.9,8.6,14.0,8.8,4.0,85,66,46,30.98,30.77,13,4,0,0.01
2013-2-16,39.3,23.4,8.3,17.0,8.4,2.0,80,55,38,30.98,30.61,9,3,0,0.00
2013-2-17,41.5,31.0,18.5,19.0,9.2,2.0,87,43,25,30.61,30.05,26,6,0,0.00
2013-2-18,28.2,16.9,3.1,15.0,5.6,-2.0,87,63,35,30.61,30.18,11,4,0,0.15
2013-2-19,39.9,25.2,5.7,10.0,2.6,-7.0,67,39,26,30.62,30.07,18,5,0,0.00
2013-2-20,34.3,28.5,22.3,21.0,13.3,5.0,88,56,34,30.06,29.82,21,6,0,0.00
2013-2-21,28.1,21.3,11.9,20.0,16.2,7.0,90,81,62,30.31,29.93,9,2,0,0.17
2013-2-22,24.7,14.2,5.0,14.0,8.6,-2.0,92,78,58,30.61,30.32,9,4,0,0.06
2013-2-23,27.0,18.3,8.0,18.0,10.5,-1.0,89,72,57,30.60,30.22,12,4,0,0.03
2013-2-24,18.8,14.5,7.5,15.0,10.9,3.0,90,85,77,30.64,30.25,7,2,0,0.00
2013-2-25,29.6,14.4,-0.3,17.0,7.0,-5.0,87,73,51,30.77,30.49,10,3,0,0.22
2013-2-26,21.8,15.8,9.0,16.0,11.6,5.0,88,83,67,30.73,30.35,13,4,0,0.00
2013-2-27,25.7,12.6,-1.0,12.0,2.8,-6.0,84,66,31,30.95,30.73,11,4,0,0.21
2013-2-28,30.2,18.8,5.9,15.0,5.2,-3.0,77,57,32,31.02,30.93,8,4,0,0.05
2013-3-1,37.6,27.2,19.1,22.0,18.8,14.0,84,72,52,30.95,30.83,11,3,0,0.00
2013-3-2,46.1,31.6,15.3,25.0,19.4,11.0,87,63,37,30.92,30.54,16,4,0,0.00
2013-3-3,45.8,38.5,32.3,29.0,23.3,19.0,87,56,42,30.53,30.03,20,6,0,0.00
2013-3-4,35.9,26.1,5.7,29.0,18.9,-7.0,90,75,46,30.62,30.01,15,4,0,0.08
2013-3-5,40.0,22.1,1.0,14.0,2.0,-9.0,68,44,25,30.89,30.62,12,3,0,0.08
2013-3-6,49.1,41.9,35.0,20.0,16.2,10.0,45,36,23,30.65,30.09,30,11,0,0.00
2013-3-7,50.5,42.8,37.0,19.0,14.9,8.0,45,33,21,30.16,30.07,24,12,0,0.00
2013-3-8,44.3,36.4,29.2,30.0,20.6,10.0,91,57,29,30.08,29.86,24,8,0,0.05
2013-3-9,31.1,25.0,8.2,23.0,20.3,4.0,91,82,70,30.50,29.86,19,4,0,0.11
2013-3-10,34.8,21.4,5.4,18.0,11.9,1.0,87,68,48,30.77,30.51,8,4,0,0.15
2013-3-11,40.0,28.0,15.3,22.0,16.2,10.0,92,63,46,30.75,30.54,9,4,0,0.00
2013-3-12,42.9,34.4,26.0,26.0,23.4,19.0,79,65,47,30.63,30.52,8,3,0,0.00
2013-3-13,49.4,37.0,26.1,26.0,20.9,15.0,79,55,25,30.71,30.62,9,4,0,0.00
2013-3-14,56.8,41.9,29.2,26.0,22.3,18.0,69,48,27,30.68,30.52,9,4,0,0.00
2013-3-15,57.1,47.2,36.6,25.0,21.9,18.0,57,38,25,30.52,30.13,23,5,0,0.00
2013-3-16,49.2,41.7,33.0,30.0,26.2,21.0,68,55,39,30.13,30.00,16,5,0,0.00
2013-3-17,43.7,35.1,26.7,27.0,18.9,5.0,87,54,34,30.20,29.94,17,6,0,0.03
2013-3-18,39.7,29.5,19.1,15.0,10.6,6.0,66,46,33,30.43,30.20,13,5,0,0.00
2013-3-19,41.7,31.9,24.9,15.0,7.6,-4.0,63,39,15,30.57,30.41,11,4,0,0.00
2013-3-20,43.4,36.7,26.7,26.0,14.9,2.0,58,42,27,30.56,30.12,22,8,0,0.00
2013-3-21,39.7,31.2,17.5,30.0,20.2,-99.9,91,69,33,30.21,29.91,19,6,0,0.30
2013-3-22,38.0,26.1,16.7,16.0,9.5,1.0,74,51,27,30.21,30.06,18,6,0,0.02
2013-3-23,21.2,14.0,4.5,13.0,3.4,-5.0,81,64,43,30.68,30.17,15,5,0,0.03
2013-3-24,24.8,12.4,3.3,10.0,-0.1,-7.0,72,58,34,30.79,30.68,14,5,0,0.01
2013-3-25,34.1,18.6,3.8,8.0,0.5,-9.0,66,47,22,30.84,30.70,9,4,0,0.00
2013-3-26,48.7,37.6,23.1,21.0,15.7,7.0,59,42,28,30.70,30.23,15,5,0,0.00
2013-3-27,51.7,39.6,26.7,23.0,18.1,15.0,62,44,25,30.29,30.21,12,5,0,0.00
2013-3-28,54.5,45.0,37.3,25.0,19.5,15.0,59,37,25,30.29,30.22,12,6,0,0.00
2013-3-29,54.0,44.4,35.0,28.0,24.0,19.0,68,46,29,30.37,30.27,12,5,0,0.00
2013-3-30,53.4,40.6,30.7,26.0,24.3,22.0,74,55,30,30.40,30.32,12,4,0,0.00
2013-3-31,55.0,42.5,29.2,26.0,20.5,15.0,70,44,22,30.37,30.22,12,5,0,0.00
2013-4-1,52.3,43.1,33.9,29.0,24.1,18.0,67,49,28,30.23,30.03,18,6,0,0.00
2013-4-2,41.8,35.1,27.6,31.0,26.1,20.0,84,70,50,30.31,30.04,14,3,0,0.06
2013-4-3,51.5,37.2,26.4,31.0,25.4,21.0,89,66,32,30.48,30.32,11,3,0,0.00
2013-4-4,57.5,43.4,31.1,25.0,21.9,18.0,65,45,24,30.49,30.26,11,5,0,0.00
2013-4-5,57.8,47.5,34.8,33.0,23.5,18.0,83,41,27,30.26,29.95,18,8,0,0.01
2013-4-6,51.3,40.4,27.2,32.0,24.5,15.0,84,58,25,30.23,30.10,11,4,0,0.02
2013-4-7,54.0,44.0,31.7,29.0,22.4,14.0,75,45,26,30.16,29.92,16,5,0,0.01
2013-4-8,49.7,40.8,33.2,31.0,21.3,-99.9,90,52,29,29.90,29.47,31,10,0,0.19
2013-4-9,28.9,16.2,2.6,25.0,12.8,-2.0,90,86,82,30.45,29.68,8,2,0,0.00
2013-4-10,30.2,17.1,1.7,18.0,9.7,-2.0,88,74,49,30.74,30.46,11,3,0,0.29
2013-4-11,43.9,31.9,24.6,29.0,23.2,16.0,83,71,53,30.60,30.23,10,4,0,0.04
2013-4-12,50.8,38.7,31.0,31.0,22.8,15.0,81,56,25,30.26,30.15,12,4,0,0.00
2013-4-13,54.1,44.0,33.7,34.0,18.1,-99.9,89,40,24,30.16,29.65,19,9,0,0.24
2013-4-14,42.2,32.8,22.6,32.0,18.7,-99.9,92,62,34,29.99,29.73,19,4,0,0.35
2013-4-15,41.9,31.6,23.9,29.0,25.0,16.0,91,78,40,29.97,29.78,16,4,0,0.08
2013-4-16,44.5,34.8,21.5,33.0,25.2,19.0,91,70,47,30.06,29.86,31,10,0,0.29
2013-4-17,23.0,17.5,5.3,21.0,13.8,1.0,92,85,76,30.62,30.00,11,3,0,0.08
2013-4-18,27.0,16.2,1.5,12.0,7.0,-3.0,92,68,49,30.90,30.62,13,4,0,0.02
2013-4-19,38.7,27.0,11.4,24.0,14.8,5.0,77,61,43,30.88,30.50,10,4,0,0.00
2013-4-20,43.8,34.8,29.8,32.0,27.3,22.0,86,74,56,30.49,30.29,13,4,0,0.00
2013-4-21,51.2,39.2,25.9,32.0,23.0,16.0,83,57,25,30.47,30.30,14,5,0,0.02
2013-4-22,48.0,43.3,38.5,23.0,21.1,19.0,49,42,36,30.29,30.12,15,5,0,0.00
2013-4-23,36.1,31.3,23.8,16.0,10.0,5.0,59,41,33,30.51,30.35,17,8,0,0.08
2013-4-24,46.2,35.4,23.4,13.0,8.3,4.0,50,33,22,30.58,30.45,17,5,0,0.00
2013-4-25,57.2,41.7,26.2,20.0,14.2,8.0,57,35,20,30.45,30.19,13,5,0,0.00
2013-4-26,57.6,43.9,29.9,18.0,13.8,7.0,52,32,14,30.46,30.27,11,6,0,0.00
2013-4-27,60.0,46.6,30.8,21.0,16.1,12.0,49,31,17,30.48,30.31,12,6,0,0.00
2013-4-28,64.6,50.5,33.6,25.0,18.8,12.0,45,30,18,30.34,30.10,14,6,0,0.00
2013-4-29,67.2,53.5,38.5,27.0,22.6,18.0,57,32,18,30.11,29.83,15,7,0,0.00
2013-4-30,64.0,55.8,36.8,33.0,24.2,19.0,83,31,23,29.86,29.67,17,7,0,0.00
2013-5-1,40.2,31.9,22.7,32.0,22.4,14.0,92,70,38,30.76,29.87,18,4,0,0.23
2013-5-2,44.4,29.6,12.1,17.0,10.9,6.0,81,51,25,31.01,30.77,15,6,0,0.00
2013-5-3,56.1,40.2,22.6,18.0,10.0,3.0,47,31,15,30.83,30.25,14,6,0,0.00
2013-5-4,63.0,47.7,30.1,22.0,14.3,5.0,44,28,14,30.25,30.05,16,6,0,0.00
2013-5-5,60.3,53.1,47.3,25.0,19.4,16.0,34,27,20,30.06,29.99,24,12,0,0.00
2013-5-6,53.1,44.0,34.7,37.0,31.9,21.0,91,65,33,30.21,30.02,18,5,0,0.39
2013-5-7,47.7,39.3,32.6,40.0,35.1,30.0,91,85,67,30.26,30.20,14,3,0,0.10
2013-5-8,39.9,36.1,32.1,38.0,33.7,29.0,93,90,84,30.36,30.21,8,2,0,0.24
2013-5-9,54.1,40.3,33.0,41.0,34.9,30.0,94,82,50,30.40,30.31,14,4,0,0.16
2013-5-10,57.8,45.4,33.1,39.0,31.2,25.0,90,61,33,30.49,30.39,14,6,0,0.11
2013-5-11,61.9,49.2,35.0,34.0,28.0,25.0,72,46,27,30.53,30.40,13,6,0,0.00
2013-5-12,65.8,53.2,39.3,37.0,31.4,26.0,64,45,29,30.45,30.30,14,5,0,0.00
2013-5-13,71.5,58.1,43.6,38.0,31.9,28.0,58,39,22,30.36,30.18,14,6,0,0.00
2013-5-14,72.4,61.2,50.6,41.0,33.2,29.0,50,36,22,30.18,29.96,19,8,0,0.00
2013-5-15,67.4,54.5,42.5,43.0,33.0,-99.9,76,50,27,30.00,29.88,15,6,0,0.02
2013-5-16,68.5,57.2,39.4,43.0,31.6,23.0,79,41,24,30.02,29.92,25,7,0,0.00
2013-5-17,66.1,58.4,48.9,28.0,21.6,16.0,34,24,16,29.95,29.87,23,10,0,0.00
2013-5-18,56.6,47.8,36.5,38.0,31.2,23.0,82,54,38,30.10,29.93,15,6,0,0.02
2013-5-19,51.4,41.6,32.1,36.0,29.7,23.0,83,65,34,30.23,30.07,20,4,0,0.00
2013-5-20,50.6,40.1,29.5,40.0,32.1,24.0,88,74,59,30.36,30.20,12,4,0,0.09
2013-5-21,60.3,46.3,30.9,36.0,30.4,26.0,86,58,29,30.36,30.10,12,5,0,0.00
2013-5-22,69.7,59.3,45.3,32.0,26.1,22.0,49,29,17,30.10,29.82,20,10,0,0.00
2013-5-23,72.6,62.9,52.8,28.0,19.5,11.0,30,20,11,29.87,29.74,34,12,0,0.00
2013-5-24,69.8,60.1,50.5,29.0,19.0,11.0,30,21,14,30.01,29.83,33,11,0,0.00
2013-5-25,71.0,59.5,51.3,24.0,18.5,13.0,26,20,16,30.04,29.94,21,10,0,0.00
2013-5-26,70.4,60.7,49.3,29.0,19.7,10.0,30,21,14,30.00,29.90,18,8,0,0.00
2013-5-27,67.7,57.4,45.4,29.0,21.1,10.0,39,25,16,29.94,29.83,18,7,0,0.00
2013-5-28,65.0,55.3,40.8,36.0,25.6,17.0,82,34,23,29.87,29.67,19,8,0,0.01
2013-5-29,54.0,44.4,36.3,38.0,32.1,24.0,88,65,35,30.01,29.74,17,5,0,0.00
2013-5-30,59.7,46.7,32.0,30.0,25.1,21.0,73,46,24,30.17,30.00,21,6,0,0.00
2013-5-31,60.0,49.2,34.4,25.0,18.9,10.0,47,32,14,30.30,30.13,17,6,0,0.00
2013-6-1,63.9,47.6,30.2,30.0,24.3,15.0,65,42,22,30.42,30.30,12,4,0,0.00
2013-6-2,74.6,59.1,39.0,39.0,26.2,20.0,49,30,16,30.32,29.93,16,6,0,0.00
2013-6-3,75.3,64.6,50.5,38.0,28.0,20.0,52,26,18,29.92,29.79,18,7,0,0.00
2013-6-4,74.1,60.1,44.0,41.0,31.8,24.0,54,36,19,30.05,29.93,13,5,0,0.00
2013-6-5,69.7,56.5,37.7,38.0,31.0,26.0,72,40,21,30.12,29.99,10,5,0,0.00
2013-6-6,72.1,58.4,42.2,38.0,31.6,25.0,64,38,24,30.14,30.04,15,5,0,0.00
2013-6-7,73.8,59.5,46.6,42.0,34.4,28.0,63,40,26,30.08,29.92,13,4,0,0.00
2013-6-8,76.3,61.9,48.0,43.0,36.6,30.0,62,41,23,30.01,29.89,18,5,0,0.00
2013-6-9,80.5,64.4,44.8,48.0,34.8,29.0,59,35,18,30.08,29.97,9,5,0,0.00
2013-6-10,83.7,72.0,63.7,48.0,32.2,20.0,40,24,14,30.00,29.79,22,8,0,0.00
2013-6-11,76.9,68.0,59.3,37.0,25.6,15.0,32,20,15,30.02,29.81,19,9,0,0.00
2013-6-12,79.6,66.9,52.8,42.0,29.6,21.0,38,26,16,30.07,30.00,14,7,0,0.00
2013-6-13,75.4,68.8,63.1,40.0,32.0,24.0,35,26,21,30.02,29.84,22,8,0,0.00
2013-6-14,76.2,63.6,47.0,40.0,26.9,16.0,46,26,14,29.98,29.87,15,6,0,0.00
2013-6-15,74.7,58.5,38.3,40.0,30.1,16.0,61,36,21,30.18,29.97,20,6,0,0.00
2013-6-16,73.8,61.9,49.7,52.0,39.3,31.0,75,45,29,30.14,30.02,18,6,0,0.15
2013-6-17,76.0,62.2,47.9,48.0,36.7,28.0,64,40,21,30.13,30.01,12,4,0,0.15
2013-6-18,78.6,67.8,59.1,41.0,28.3,12.0,35,24,13,30.02,29.80,19,9,0,0.00
2013-6-19,76.4,67.0,57.9,29.0,19.5,11.0,25,16,9,29.82,29.71,24,10,0,0.00
2013-6-20,76.2,60.8,37.1,32.0,23.2,14.0,50,25,14,29.95,29.79,15,6,0,0.00
2013-6-21,76.5,65.0,51.5,31.0,22.6,15.0,30,20,13,29.95,29.85,26,8,0,0.00
2013-6-22,74.8,64.2,48.0,36.0,26.2,19.0,40,24,17,29.94,29.82,20,7,0,0.00
2013-6-23,77.2,60.9,41.2,41.0,28.3,16.0,58,31,16,29.99,29.86,12,5,0,0.00
2013-6-24,71.9,63.8,56.3,31.0,24.2,16.0,28,22,17,29.91,29.82,18,8,0,0.00
2013-6-25,76.0,64.3,52.7,44.0,33.6,23.0,56,33,21,30.05,29.88,14,5,0,0.00
2013-6-26,82.4,67.9,50.9,51.0,38.4,32.0,63,35,22,30.13,30.05,12,5,0,0.00
2013-6-27,85.2,71.7,52.4,49.0,37.4,31.0,47,30,19,30.20,30.09,12,6,0,0.00
2013-6-28,87.6,72.0,57.5,57.0,40.1,30.0,66,33,16,30.13,29.99,17,5,0,0.00
2013-6-29,83.8,70.8,61.4,53.0,42.7,36.0,54,37,22,30.05,29.93,16,5,0,0.00
2013-6-30,81.1,67.0,51.3,51.0,43.5,37.0,70,44,26,30.09,29.97,15,4,0,0.01
2013-7-1,80.1,68.5,53.5,48.0,40.2,35.0,64,37,22,30.13,30.02,14,5,0,0.01
2013-7-2,79.3,68.2,58.1,48.0,40.0,32.0,55,37,24,30.10,29.96,13,6,0,0.00
2013-7-3,79.0,65.1,52.2,50.0,39.0,29.0,59,40,23,30.04,29.92,22,5,0,0.00
2013-7-4,80.6,71.8,63.6,56.0,46.2,42.0,55,41,28,29.99,29.86,8,3,0,0.00
2013-7-5,80.1,68.2,56.3,54.0,46.3,40.0,73,47,31,29.91,29.77,15,4,0,0.00
2013-7-6,77.9,65.1,56.0,51.0,45.1,41.0,65,50,31,29.99,29.85,9,3,0,0.00
2013-7-7,81.8,66.2,51.4,52.0,46.3,42.0,75,51,28,30.10,29.93,9,4,0,0.00
2013-7-8,79.9,63.8,48.2,53.0,43.8,37.0,77,52,23,30.17,30.05,15,4,0,0.00
2013-7-9,84.6,71.2,57.4,50.0,41.3,37.0,62,36,20,30.16,30.03,8,4,0,0.00
2013-7-10,85.1,72.1,60.6,51.0,39.7,29.0,56,32,16,30.05,29.89,11,4,0,0.00
2013-7-11,84.5,69.1,53.6,53.0,44.6,27.0,87,45,21,29.97,29.79,28,8,0,0.23
2013-7-12,77.6,63.3,50.7,58.0,51.5,47.0,89,68,38,30.06,29.93,19,4,0,0.10
2013-7-13,78.7,64.7,53.0,57.0,51.2,48.0,87,64,35,30.11,30.02,12,4,0,0.12
2013-7-14,76.3,65.2,52.6,57.0,50.4,44.0,83,60,42,30.14,30.01,12,4,0,0.00
2013-7-15,81.7,64.5,49.9,58.0,48.1,43.0,79,58,31,30.07,29.89,23,5,0,0.13
2013-7-16,78.9,65.0,50.4,57.0,51.1,46.0,88,63,40,30.09,29.97,15,4,0,0.13
2013-7-17,76.3,63.6,52.4,58.0,52.0,48.0,88,68,44,30.16,30.07,15,4,0,0.01
2013-7-18,81.1,62.0,50.6,57.0,49.7,-99.9,89,69,36,30.20,30.03,23,7,0,1.21
2013-7-19,79.5,64.2,51.1,58.0,51.2,46.0,87,65,37,30.19,30.02,18,5,0,1.21
2013-7-20,81.3,66.4,52.6,56.0,46.4,37.0,82,52,26,30.05,29.87,11,4,0,0.00
2013-7-21,82.7,69.6,57.0,50.0,39.9,32.0,55,35,19,29.96,29.87,14,5,0,0.00
2013-7-22,82.9,69.3,55.8,53.0,42.2,27.0,68,40,14,29.98,29.88,8,3,0,0.00
2013-7-23,84.0,69.6,56.6,48.0,37.4,26.0,51,32,17,30.04,29.94,18,6,0,0.00
2013-7-24,77.4,67.5,58.3,51.0,43.6,36.0,58,43,29,30.05,29.96,32,9,0,0.00
2013-7-25,78.3,66.2,53.6,52.0,46.1,41.0,73,50,28,30.12,30.01,14,4,0,0.00
2013-7-26,80.2,66.2,52.1,52.0,43.4,36.0,73,47,25,30.19,30.06,11,5,0,0.00
2013-7-27,75.8,65.2,54.9,52.0,46.0,35.0,87,52,32,30.10,29.90,20,7,0,0.25
2013-7-28,68.1,59.3,53.0,56.0,52.5,47.0,94,78,59,30.07,29.92,10,2,0,0.43
2013-7-29,69.2,60.8,51.2,57.0,49.0,38.0,91,66,48,30.26,30.07,15,4,0,0.00
2013-7-30,75.1,60.7,45.3,52.0,44.2,37.0,81,57,31,30.37,30.25,14,4,0,0.00
2013-7-31,78.2,66.3,55.6,54.0,45.3,36.0,64,47,31,30.32,30.12,11,4,0,0.00
2013-8-1,67.2,59.8,51.6,55.0,46.7,39.0,91,66,39,30.16,30.06,24,8,0,0.28
2013-8-2,74.1,62.2,49.3,58.0,51.6,46.0,90,70,48,30.21,30.09,18,4,0,0.30
2013-8-3,75.1,63.9,53.1,57.0,50.3,44.0,81,62,44,30.15,30.07,20,6,0,0.00
2013-8-4,74.7,62.9,50.9,58.0,48.1,43.0,76,59,42,30.17,30.11,13,5,0,0.03
2013-8-5,73.9,62.8,54.1,54.0,48.3,44.0,77,60,42,30.16,30.05,8,3,0,0.03
2013-8-6,71.2,60.3,51.5,54.0,46.9,42.0,78,62,45,30.12,30.05,13,4,0,0.00
2013-8-7,70.4,57.6,49.0,52.0,45.2,41.0,80,64,40,30.16,30.08,12,3,0,0.00
2013-8-8,71.4,58.8,50.6,50.0,43.2,40.0,75,57,35,30.16,30.08,15,5,0,0.00
2013-8-9,70.3,57.3,46.3,50.0,42.8,39.0,81,60,33,30.26,30.14,22,4,0,0.02
2013-8-10,69.6,57.4,43.3,48.0,40.5,34.0,80,55,38,30.31,30.23,20,7,0,0.01
2013-8-11,71.5,58.9,43.5,48.0,41.6,37.0,85,55,35,30.35,30.21,20,5,0,0.01
2013-8-12,72.0,59.5,46.8,49.0,41.0,36.0,72,52,34,30.25,30.15,13,5,0,0.00
2013-8-13,74.1,58.8,43.4,48.0,40.0,33.0,80,53,22,30.28,30.20,14,4,0,0.00
2013-8-14,76.6,61.8,46.1,47.0,36.8,31.0,63,42,22,30.25,30.13,18,5,0,0.00
2013-8-15,79.3,65.7,53.3,46.0,33.7,23.0,48,32,18,30.19,30.12,13,6,0,0.00
2013-8-16,81.4,67.2,53.5,46.0,32.7,25.0,46,29,15,30.17,30.07,15,6,0,0.00
2013-8-17,81.5,67.0,55.1,51.0,38.7,29.0,54,37,19,30.14,30.04,12,5,0,0.00
2013-8-18,79.0,65.4,51.7,51.0,44.5,40.0,71,48,32,30.15,30.07,16,6,0,0.00
2013-8-19,83.0,65.7,52.0,53.0,44.8,40.0,71,49,26,30.15,30.00,22,6,0,0.03
2013-8-20,73.4,64.0,57.0,52.0,43.5,39.0,68,48,38,30.07,30.03,14,6,0,0.03
2013-8-21,79.1,71.4,60.3,52.0,46.0,41.0,56,41,29,30.17,30.08,19,4,0,0.00
2013-8-22,76.7,64.6,56.7,57.0,47.0,41.0,72,54,37,30.15,30.00,11,4,0,0.04
2013-8-23,76.5,58.4,50.2,53.0,44.6,-99.9,84,66,35,30.10,29.99,14,-18,0,0.04
2013-8-24,72.5,50.9,51.2,51.0,23.3,-99.9,85,52,38,30.19,30.06,15,-154,0,0.17
2013-8-25,59.7,54.2,49.8,55.0,51.2,46.0,95,89,75,30.32,30.17,8,1,0,0.24
2013-8-26,69.9,59.4,53.5,57.0,52.9,49.0,93,79,62,30.34,30.21,14,4,0,0.27
2013-8-27,73.2,59.8,50.0,58.0,52.1,47.0,92,77,51,30.27,30.13,18,3,0,0.05
2013-8-28,75.7,62.2,50.8,54.0,48.3,43.0,81,62,41,30.20,30.11,11,4,0,0.05
2013-8-29,79.6,66.2,54.1,53.0,46.4,41.0,72,51,29,30.20,30.12,9,4,0,0.00
2013-8-30,76.2,66.3,58.6,54.0,48.5,45.0,74,54,39,30.18,30.05,15,5,0,0.05
2013-8-31,76.0,64.2,53.9,54.0,49.8,46.0,82,61,42,30.11,30.02,10,3,0,0.03
2013-9-1,80.2,64.1,49.2,54.0,48.4,44.0,81,59,32,30.12,30.02,16,5,0,0.03
2013-9-2,79.6,66.3,50.9,53.0,47.9,44.0,79,54,30,30.12,30.00,15,5,0,0.00
2013-9-3,78.5,65.9,55.8,56.0,49.2,46.0,78,57,33,30.14,30.07,12,4,0,0.01
2013-9-4,80.1,68.7,60.3,54.0,48.7,45.0,66,50,34,30.18,30.06,19,4,0,0.01
2013-9-5,80.6,67.9,58.9,53.0,48.5,44.0,66,51,33,30.17,30.05,18,3,0,0.01
2013-9-6,80.7,67.5,56.0,53.0,45.4,41.0,65,47,26,30.17,30.01,15,4,0,0.01
2013-9-7,80.3,72.2,58.6,51.0,44.9,38.0,53,38,28,30.08,29.95,15,4,0,0.00
2013-9-8,74.7,61.1,51.9,52.0,47.0,41.0,84,61,41,30.03,29.90,11,3,0,0.00
2013-9-9,56.4,52.5,49.3,53.0,49.5,46.0,94,89,81,30.15,29.99,7,1,0,0.29
2013-9-10,56.9,52.6,46.3,54.0,50.6,44.0,95,92,89,30.20,30.11,7,1,0,0.05
2013-9-11,61.2,53.8,50.8,57.0,51.3,48.0,95,91,78,30.25,30.18,5,1,0,0.24
2013-9-12,67.9,56.8,45.7,56.0,48.6,41.0,90,75,46,30.28,30.11,13,3,0,0.18
2013-9-13,66.8,55.7,45.0,54.0,48.2,43.0,92,77,56,30.13,29.96,14,3,0,0.10
2013-9-14,61.2,52.7,47.4,53.0,48.1,44.0,92,84,70,30.11,30.00,14,3,0,0.24
2013-9-15,62.2,52.4,44.4,52.0,46.6,41.0,91,81,62,30.25,30.11,9,2,0,0.01
2013-9-16,68.6,56.5,44.3,52.0,45.2,39.0,88,68,43,30.27,30.15,13,5,0,0.01
2013-9-17,69.3,60.3,54.4,54.0,46.6,42.0,79,61,47,30.17,29.89,21,9,0,0.01
2013-9-18,66.0,58.9,48.3,51.0,46.1,41.0,80,63,47,29.96,29.84,21,9,0,0.04
2013-9-19,62.8,49.7,36.4,44.0,33.9,18.0,93,59,21,30.28,29.96,10,4,0,0.04
2013-9-20,66.4,52.2,36.9,39.0,29.2,17.0,67,43,29,30.31,30.18,11,5,0,0.00
2013-9-21,69.0,60.8,52.0,45.0,37.2,31.0,75,43,31,30.19,29.83,18,8,0,0.07
2013-9-22,57.6,48.1,38.3,45.0,39.8,36.0,92,75,55,29.87,29.68,31,8,0,1.09
2013-9-23,54.7,43.9,37.8,39.0,35.5,29.0,93,75,45,30.39,29.86,11,2,0,1.21
2013-9-24,65.4,47.5,31.4,41.0,32.1,25.0,79,58,22,30.43,30.20,12,4,0,0.00
2013-9-25,65.0,60.2,56.4,29.0,26.5,23.0,33,28,24,29.66,29.59,25,10,0,0.00
2013-9-26,63.7,56.0,47.3,39.0,26.8,24.0,70,33,24,29.78,29.65,28,14,0,0.06
2013-9-27,48.3,38.4,28.0,40.0,31.3,24.0,91,76,59,30.34,29.72,17,4,0,0.04
2013-9-28,50.7,35.4,24.2,35.0,26.2,19.0,85,71,46,30.64,30.34,10,3,0,0.05
2013-9-29,61.2,46.3,28.7,34.0,24.3,16.0,73,45,28,30.59,30.30,17,5,0,0.00
2013-9-30,67.9,54.0,41.8,37.0,25.9,21.0,48,34,23,30.29,30.05,17,5,0,0.00
2013-10-1,69.3,57.7,0.2,36.0,27.8,-99.9,49,32,20,44.15,30.02,12,-13,0,0.00
2013-10-2,64.8,55.6,43.3,31.0,24.9,18.0,40,31,25,30.09,29.94,19,8,0,0.00
2013-10-3,58.9,48.6,28.5,33.0,26.6,-99.9,91,48,28,29.99,29.73,30,9,0,0.00
2013-10-4,31.5,25.4,19.4,26.0,21.6,15.0,92,85,67,30.75,29.99,9,2,0,0.29
2013-10-5,41.1,33.7,23.2,27.0,22.8,17.0,84,65,53,30.89,30.75,8,4,0,0.25
2013-10-6,54.4,39.0,24.6,33.0,26.0,19.0,78,61,43,30.84,30.61,9,4,0,0.25
2013-10-7,59.9,45.5,30.1,36.0,29.2,21.0,74,55,35,30.61,30.28,7,3,0,0.00
2013-10-8,61.5,54.4,48.3,31.0,24.6,20.0,41,32,26,30.28,29.89,25,9,0,0.00
2013-10-9,58.5,51.0,45.2,30.0,24.0,19.0,50,35,25,29.95,29.86,21,9,0,0.00
2013-10-10,46.0,38.0,32.8,36.0,33.4,30.0,91,84,61,30.09,29.82,18,4,0,0.17
2013-10-11,46.4,37.0,30.8,36.0,30.6,26.0,90,78,56,30.39,30.08,8,2,0,0.07
2013-10-12,49.4,39.7,33.0,32.0,27.7,25.0,81,63,46,30.43,30.31,13,5,0,0.07
2013-10-13,55.0,47.9,41.4,39.0,31.0,27.0,70,53,43,30.32,30.02,24,9,0,0.04
2013-10-14,39.3,34.3,32.0,33.0,30.7,28.0,93,87,74,30.45,30.05,9,2,0,0.17
2013-10-15,34.5,30.6,25.6,33.0,28.5,23.0,94,92,87,30.49,30.43,4,0,0,0.12
2013-10-16,41.2,30.2,23.2,29.0,23.4,16.0,92,77,47,30.58,30.48,9,2,0,0.02
2013-10-17,46.3,34.9,20.9,24.0,19.9,16.0,81,57,32,30.55,30.35,13,4,0,0.02
2013-10-18,40.9,32.4,25.7,27.0,19.6,13.0,85,62,33,30.58,30.35,11,3,0,0.00
2013-10-19,49.0,40.2,28.5,26.0,22.0,18.0,67,49,38,30.61,30.48,7,3,0,0.00
2013-10-20,49.5,38.0,28.9,24.0,20.5,17.0,64,51,34,30.48,30.26,9,3,0,0.00
2013-10-21,50.7,37.5,27.6,25.0,21.7,18.0,78,55,30,30.54,30.33,9,3,0,0.00
2013-10-22,54.6,39.1,25.8,28.0,22.8,18.0,78,55,34,30.61,30.50,7,3,0,0.00
2013-10-23,57.1,41.3,29.8,30.0,23.7,19.0,66,52,32,30.50,30.39,9,4,0,0.00
2013-10-24,57.7,43.6,30.3,30.0,24.0,20.0,71,48,28,30.45,30.38,9,3,0,0.00
2013-10-25,53.8,43.4,34.1,31.0,26.1,20.0,71,52,38,30.46,30.36,9,3,0,0.00
2013-10-26,55.8,41.6,31.7,32.0,25.0,19.0,78,55,27,30.58,30.45,9,4,0,0.00
2013-10-27,55.0,45.3,33.7,28.0,25.3,21.0,60,46,33,30.48,30.00,20,7,0,0.00
2013-10-28,52.9,47.2,43.0,29.0,22.6,19.0,49,39,28,29.99,29.83,30,13,0,0.00
2013-10-29,44.6,36.2,29.4,32.0,27.0,20.0,92,72,38,30.14,29.87,25,6,0,0.23
2013-10-30,32.7,28.9,23.4,27.0,24.6,19.0,91,84,73,30.37,30.15,9,2,0,0.17
2013-10-31,33.1,29.3,25.8,27.0,24.4,22.0,91,82,67,30.52,30.37,7,1,0,0.08
2013-11-1,42.2,33.5,27.2,28.0,24.4,19.0,84,70,49,30.66,30.50,9,3,0,0.14
2013-11-2,49.7,35.1,18.1,29.0,18.8,9.0,75,54,22,30.66,30.25,27,4,0,0.14
2013-11-3,47.9,40.3,20.9,26.0,21.3,16.0,90,50,31,30.24,29.85,31,11,0,0.00
2013-11-4,33.3,23.7,10.1,24.0,17.9,7.0,89,78,68,30.39,30.11,6,1,0,0.07
2013-11-5,27.2,19.5,10.3,20.0,11.2,1.0,90,72,39,30.83,30.39,9,3,0,0.13
2013-11-6,36.7,21.7,7.5,19.0,11.2,1.0,81,65,47,31.04,30.84,9,2,0,0.03
2013-11-7,43.4,30.7,17.9,25.0,18.8,13.0,85,63,36,31.02,30.57,9,1,0,0.03
2013-11-8,49.5,41.1,29.9,26.0,19.8,16.0,66,43,31,30.57,30.30,20,4,0,0.00
2013-11-9,51.6,40.8,31.1,26.0,20.5,17.0,59,45,36,30.50,30.35,17,4,0,0.00
2013-11-10,52.0,38.1,28.4,25.0,19.8,16.0,65,49,33,30.61,30.49,8,3,0,0.00
2013-11-11,52.9,38.8,28.3,23.0,18.3,16.0,60,46,27,30.74,30.60,8,3,0,0.00
2013-11-12,53.9,39.5,29.6,25.0,18.0,11.0,63,44,22,30.82,30.73,10,3,0,0.00
2013-11-13,46.7,35.9,31.4,24.0,21.8,19.0,65,58,40,30.44,30.39,5,1,0,0.00
2013-11-14,44.4,35.1,23.8,28.0,21.1,4.0,87,59,22,30.43,30.13,19,3,0,0.00
2013-11-15,43.9,36.3,26.2,27.0,22.0,13.0,88,59,35,30.13,29.83,19,7,0,0.00
2013-11-16,35.2,31.9,25.1,28.0,23.9,19.0,90,73,63,30.04,29.81,25,8,0,0.03
2013-11-17,43.1,34.4,28.5,26.0,21.6,15.0,74,60,48,30.51,30.05,11,4,0,0.21
2013-11-18,44.3,32.1,22.2,27.0,19.8,15.0,76,62,45,30.63,30.47,8,3,0,0.21
2013-11-19,43.3,37.7,29.3,32.0,26.5,16.0,92,66,45,30.46,30.14,18,4,0,0.00
2013-11-20,40.0,33.5,27.0,33.0,28.9,23.0,91,83,66,30.21,30.11,7,1,0,0.02
2013-11-21,36.9,30.2,22.4,33.0,28.0,20.0,93,91,86,30.55,30.16,4,0,0,0.21
2013-11-22,32.9,27.0,21.9,31.0,25.0,20.0,93,92,91,30.68,30.54,0,0,0,0.01
2013-11-23,36.7,31.9,29.3,35.0,29.8,28.0,94,92,89,30.50,30.47,3,0,0,0.20
2013-11-24,31.9,29.0,25.7,29.0,27.3,24.0,100,93,89,30.48,30.36,2,0,0,0.07
2013-11-25,34.4,23.8,14.6,27.0,19.5,12.0,93,84,65,30.82,30.43,6,1,0,0.27
2013-11-26,37.3,24.7,17.2,26.0,18.4,13.0,86,77,63,30.92,30.82,9,2,0,0.01
2013-11-27,39.0,24.0,14.4,25.0,16.7,10.0,85,74,54,30.83,30.63,6,1,0,0.01
2013-11-28,38.4,25.2,15.3,26.0,18.7,12.0,86,77,58,30.70,30.61,5,1,0,0.01
2013-11-29,40.0,27.0,17.0,28.0,20.5,13.0,92,77,61,30.75,30.66,7,1,0,0.00
2013-11-30,39.2,23.1,13.8,27.0,17.8,10.0,91,81,57,30.82,30.71,5,0,0,0.00
2013-12-1,26.5,21.3,14.8,25.0,19.1,12.0,93,91,86,30.86,30.73,5,0,0,0.01
2013-12-2,25.8,21.9,18.9,24.0,19.9,17.0,94,91,90,30.75,30.24,2,0,0,0.01
2013-12-3,38.4,32.9,21.3,29.0,23.2,19.0,94,69,51,30.24,29.63,32,12,0,0.01
2013-12-4,32.9,6.5,-10.3,29.0,2.4,-15.0,88,83,74,30.59,29.61,13,1,0,0.00
2013-12-5,10.0,-2.2,-14.1,3.0,-7.5,-19.0,92,78,71,30.77,30.60,6,2,0,0.05
2013-12-6,13.1,3.7,-4.6,6.0,-1.3,-9.0,85,79,71,30.80,30.74,6,2,0,0.05
2013-12-7,17.9,14.4,8.9,14.0,9.6,2.0,88,81,69,30.77,30.15,22,5,0,0.00
2013-12-8,16.3,7.9,-5.5,13.0,2.8,-12.0,88,79,62,30.63,30.12,9,3,0,0.00
2013-12-9,9.6,-1.0,-12.9,1.0,-7.2,-18.0,86,75,60,31.26,30.63,7,2,0,0.00
2013-12-10,16.3,3.4,-12.8,6.0,-3.7,-18.0,83,73,58,31.30,31.12,5,1,0,0.00
2013-12-11,29.8,12.6,1.7,15.0,5.0,-3.0,85,73,54,31.15,31.06,4,0,0,0.05
2013-12-12,36.8,16.2,3.4,17.0,7.2,-2.0,88,70,40,31.16,30.73,4,0,0,0.10
2013-12-13,33.2,19.2,9.2,14.0,9.8,5.0,84,68,40,30.78,30.53,4,1,0,0.02
2013-12-14,29.2,18.7,10.9,16.0,11.2,6.0,85,73,56,31.02,30.77,7,2,0,0.01
2013-12-15,37.4,21.7,9.5,20.0,12.6,5.0,87,70,47,31.06,30.93,8,1,0,0.00
2013-12-16,44.6,28.3,15.9,22.0,15.6,10.0,83,61,34,30.95,30.81,8,2,0,0.00
2013-12-17,43.4,26.4,16.7,21.0,14.9,10.0,79,64,39,30.91,30.74,6,1,0,0.00
2013-12-18,38.9,29.4,18.9,24.0,17.3,10.0,78,62,44,30.74,30.17,19,1,0,0.00
2013-12-19,42.4,36.1,29.3,28.0,20.2,17.0,85,54,41,30.19,29.89,25,9,0,0.00
2013-12-20,31.8,24.0,10.2,26.0,20.3,6.0,91,85,71,30.11,29.94,7,2,0,0.07
2013-12-21,23.6,17.1,6.2,19.0,12.9,3.0,89,83,76,30.48,30.06,6,2,0,0.00
2013-12-22,26.6,19.6,13.2,15.0,11.5,7.0,84,71,55,30.80,30.49,8,2,0,0.01
2013-12-23,32.1,20.9,12.8,19.0,12.8,-99.9,87,74,54,30.95,30.79,7,-9,0,0.00
2013-12-24,34.2,22.6,7.3,23.0,15.8,-3.0,88,76,56,30.89,30.71,7,3,0,0.01
2013-12-25,33.0,17.9,6.1,10.0,0.9,-4.0,66,49,22,31.05,30.89,6,2,0,0.01
2013-12-26,40.7,23.4,6.7,14.0,5.4,-3.0,66,48,26,31.03,30.90,7,2,0,0.00
2013-12-27,42.1,26.4,14.9,19.0,14.5,9.0,81,63,37,30.90,30.64,7,1,0,0.00
2013-12-28,35.6,23.4,14.6,20.0,14.6,9.0,87,71,47,30.64,30.41,5,1,0,0.00
2013-12-29,28.1,16.8,6.6,17.0,9.2,-1.0,90,73,56,30.79,30.54,6,1,0,0.00
2013-12-30,34.5,19.8,7.9,16.0,9.3,1.0,82,65,46,30.93,30.76,8,1,0,0.00
2013-12-31,34.9,26.8,10.9,24.0,16.4,6.0,85,66,50,30.83,30.55,7,1,0,0.00
2014-1-1,34.0,26.0,14.6,21.0,14.0,5.0,79,62,40,30.76,30.49,8,2,0,0.00
2014-1-2,41.0,21.2,9.2,15.0,6.9,1.0,71,56,28,30.89,30.74,6,1,0,0.00